Voltar ao catálogo

COSMOS 1275 DEB

AtivoPO
NORAD 12673·DEBRIS·🇷🇺 Russia

Lançado Jun 4, 1981 de Plesetsk Cosmodrome

Loading…

Próximas Passagens (próximas 24 horas)

TLE

AtualizadoSource: Space-Track

Época: Sep 14, 2026, 11:29 UTC

1 12673U 81053AD  26257.47856892  .00001196  00000-0  63415-3 0  9996
2 12673  82.8462  70.4558 0036707 304.6487  83.1978 14.12584186287503

Acompanhe COSMOS 1275 DEB em tempo real com AllMySat

Download on the App Store